Dewpoint
40 40 41 39 38 39 39 38 38 37 36 36 36 36 36 36 38 39 37 39 37 32 31 29 28 31 31 33 30 35 32 33 32 28 29 28 26 23 23 17 17 21 22 22 23 20 17 17 14 14 17 19 18 19
40 40 40 38 38 39 38 37 37 37 36 36 36 34 34 35 35 37 37 35 40 34 32 35 35 34 33 35 32 35 31 30 35 32 33 31 29 28 23 18 18 19 23 22 20 22 23 20 19 19 20 21 21 21
39 39 37 38 38 38 38 36 38 37 36 36 35 34 34 35 33 35 38 39 37 32 33 33 33 36 37 37 39 32 35 35 36 37 36 33 30 28 24 23 20 19 19 24 23 21 20 20 20 22 20 21 22 24
38 36 37 38 36 37 37 36 37 37 35 35 34 35 35 35 33 33 37 39 38 33 31 33 36 37 38 37 38 39 37 37 37 37 34 33 30 28 25 23 24 21 22 22 23 21 20 20 20 21 21 23 22 23
35 36 37 38 36 36 36 36 37 36 35 34 34 34 34 35 35 37 40 40 40 34 32 32 32 34 38 39 38 38 37 34 34 33 33 32 32 30 29 29 26 23 24 25 25 22 22 22 22 23 23 22 23 23
35 37 37 36 35 35 35 36 37 36 34 35 33 33 34 34 34 38 32 38 41 37 34 28 33 33 34 35 36 36 36 34 34 35 35 36 33 32 28 24 23 22 25 25 24 23 23 23 23 22 22 22 23 25
36 36 36 35 34 35 35 37 36 35 33 32 34 35 33 34 37 34 35 37 40 39 34 29 29 32 32 33 35 35 35 35 35 35 34 31 30 32 30 24 22 23 23 24 25 27 26 26 26 25 24 23 26 25
36 35 34 35 35 35 36 36 35 34 32 34 34 36 35 35 36 36 41 41 41 37 35 29 28 30 32 30 30 35 34 34 35 33 31 29 28 29 24 20 20 20 20 21 23 23 24 25 24 24 23 23 23 24
34 34 34 34 35 35 37 36 35 35 33 35 36 34 36 38 36 35 37 39 42 37 32 30 25 25 32 31 33 33 34 28 32 29 27 30 25 25 22 20 19 21 23 24 25 25 25 25 24 24 24 24 24 24
35 34 34 34 35 35 36 35 36 33 34 35 32 33 32 34 35 37 36 34 33 34 33 30 28 29 32 29 31 30 32 27 25 25 28 26 20 21 22 26 28 28 29 29 30 30 30 29 28 27 25 25 26 26
36 37 34 33 34 34 36 36 34 34 33 28 31 30 31 35 32 32 30 28 30 27 30 28 27 25 31 28 28 29 28 26 21 21 23 21 19 23 26 28 29 31 30 29 29 29 29 31 32 31 29 29 29 32
32 34 37 35 34 34 35 35 34 34 33 28 28 32 32 32 30 27 25 24 23 21 29 27 29 28 30 31 29 28 24 26 17 26 25 18 22 27 28 30 30 31 30 29 30 32 33 32 32 35 32 31 32 35
30 31 33 37 35 34 36 35 35 34 33 29 33 30 29 27 22 19 19 21 23 26 29 28 30 31 30 30 29 28 25 21 26 25 19 19 25 28 29 30 30 30 30 30 30 31 32 37 37 37 37 40 37 35
30 30 32 36 35 34 32 32 32 33 30 28 24 22 23 21 20 19 21 24 25 25 27 28 29 28 29 28 26 24 22 25 20 17 17 25 28 29 30 32 30 30 30 30 30 30 33 38 37 38 35 34 34 32
30 30 30 32 35 32 32 32 32 33 28 24 25 19 21 23 26 29 29 27 27 30 31 31 29 28 26 26 25 24 22 17 16 21 24 27 28 32 33 32 30 30 29 30 32 30 30 31 31 32 32 33 33 32
30 29 30 35 33 32 33 32 32 31 30 26 24 24 27 26 29 30 30 29 30 31 31 32 28 26 23 22 19 19 15 17 21 24 26 26 27 27 31 30 31 32 31 31 32 31 31 29 29 31 32 32 32 31
31 28 36 35 37 34 33 31 31 31 26 25 25 28 28 27 28 30 29 30 33 30 28 26 22 17 25 21 15 23 20 22 23 25 25 25 29 29 30 29 30 30 31 31 31 31 31 31 31 30 28 29 30 30
30 28 31 34 38 33 31 31 30 27 23 24 23 27 29 30 29 29 30 31 31 31 28 25 28 22 21 15 20 22 21 23 23 24 26 26 28 29 29 28 29 30 31 31 31 31 31 30 29 29 30 30 30 31
29 33 31 33 38 31 29 28 28 23 22 24 27 26 27 30 30 29 29 29 30 31 31 27 21 21 21 20 20 21 21 21 21 24 27 32 31 31 31 31 31 31 30 31 30 29 30 30 30 30 30 30 29 30
27 33 32 32 37 30 27 25 30 24 20 25 27 26 26 27 28 27 27 27 27 26 23 19 19 20 21 20 21 20 21 21 21 23 26 29 32 31 30 31 30 31 31 32 31 31 30 30 30 30 29 29 29 29
32 30 32 33 29 28 26 24 25 24 25 24 24 24 26 27 26 26 24 21 23 20 18 19 20 20 20 20 21 20 21 20 20 22 22 24 28 29 30 30 30 30 30 30 30 29 29 28 29 29 31 30 31 30
32 33 35 30 28 29 27 23 22 25 23 22 23 23 24 24 23 22 17 18 18 18 18 18 19 19 18 18 19 19 20 20 21 21 22 23 26 27 28 29 28 29 29 30 30 29 29 28 28 28 29 30 29 30
35 34 32 27 25 24 19 23 21 19 20 20 22 20 21 21 19 15 16 14 16 17 17 17 17 18 18 18 17 17 18 18 19 20 19 21 25 30 29 29 28 28 28 28 30 30 29 27 28 29 29 28 29 30
34 29 25 22 22 20 20 20 22 21 20 20 18 18 18 18 13 14 12 15 16 14 14 14 15 17 17 16 17 16 17 18 18 18 17 18 21 24 26 29 28 27 29 28 28 30 30 30 28 28 29 28 27 27
23 21 22 18 21 20 17 17 19 18 16 17 16 15 17 18 15 11 10 12 13 15 15 14 16 15 16 16 16 16 16 17 17 16 16 16 17 21 23 26 24 23 24 29 31 31 31 31 31 30 29 29 27 27
16 17 17 16 18 17 16 14 14 14 14 14 11 13 14 14 11 9 10 13 15 15 16 17 17 15 14 14 14 14 15 16 17 15 15 15 14 14 15 17 18 21 19 22 25 29 30 30 31 30 30 29 27 28
13 15 17 18 20 15 15 14 11 12 11 10 11 11 11 7 7 9 12 13 13 15 14 15 15 14 14 14 14 14 14 16 16 15 16 15 14 13 12 11 11 14 17 19 21 24 28 30 29 30 30 30 31 30
17 17 15 17 16 12 10 10 10 9 10 9 10 8 7 4 6 12 14 15 16 13 12 11 10 9 9 9 10 12 14 15 16 16 17 15 14 12 10 12 13 15 16 18 19 22 26 30 30 30 30 29 28 31
17 17 16 12 14 14 12 10 11 11 11 10 10 8 8 11 14 14 14 15 15 14 11 11 11 12 10 9 10 9 10 12 10 5 5 8 8 9 8 8 10 12 14 16 18 20 22 27 30 31 31 31 30 30
15 17 13 11 11 10 13 12 13 13 11 12 10 9 9 12 12 14 16 15 14 14 14 14 14 14 10 10 8 7 8 8 7 8 6 5 5 6 7 8 8 9 12 16 17 18 21 28 29 30 30 29 28 28
16 16 12 11 9 12 11 10 10 12 12 11 11 12 9 12 14 15 15 16 14 12 13 12 10 11 9 8 10 8 7 7 3 3 4 6 7 7 7 6 8 9 11 14 16 17 17 21 25 28 28 28 27 27
16 12 10 7 8 11 11 12 12 11 12 12 9 9 9 11 9 12 12 14 13 13 10 11 10 10 9 8 8 8 4 7 7 5 3 5 7 7 7 7 7 8 8 10 13 15 16 17 18 23 28 28 28 28
12 12 11 10 9 10 10 10 7 8 9 8 7 7 9 10 6 11 10 12 15 15 13 13 13 11 7 7 8 7 5 6 1 1 2 2 1 1 5 7 7 6 6 8 10 12 13 13 13 15 17 21 24 26
Lifted_Index
10 10 10 10 10 10 10 10 10 10 10 9 9 9 8 8 8 7 6 5 5 5 5 4 3 3 3 3 3 3 2 2 2 1 0 1 2 2 3 3 3 3 3 3 3 3 3 3 4 4 5 6 6 6
10 10 10 10 10 10 10 10 10 10 10 9 9 9 9 8 8 8 6 5 5 5 5 3 3 3 3 3 3 3 3 3 2 1 1 1 1 2 3 3 3 3 3 3 3 3 3 3 4 4 4 5 5 5
10 10 10 10 10 10 10 10 10 9 10 9 9 9 9 9 9 8 7 5 5 5 4 3 2 2 3 2 2 3 3 3 2 2 1 1 1 2 3 3 2 2 2 2 2 3 3 3 3 2 3 3 4 4
11 11 10 10 10 10 10 10 9 9 10 10 10 9 9 9 9 8 6 5 4 4 3 2 2 2 2 2 2 3 3 3 2 2 2 1 1 2 2 2 2 2 1 1 2 2 2 2 1 1 1 2 3 3
11 11 10 10 10 10 10 9 9 9 10 10 10 9 9 9 9 7 6 4 4 3 2 2 2 2 2 2 2 2 2 2 2 2 2 2 2 2 2 2 2 2 1 1 1 1 1 1 1 1 1 1 2 2
11 10 10 10 10 10 9 9 9 9 10 10 10 9 9 9 8 6 5 4 3 2 2 2 2 2 2 2 2 2 2 2 2 2 1 1 1 2 2 2 2 2 1 1 1 1 1 1 1 1 1 2 2 2
11 10 10 10 10 10 9 9 9 9 10 10 9 9 9 9 7 6 4 3 3 3 2 2 2 2 2 2 1 1 1 2 2 2 2 2 2 2 2 2 2 2 2 2 2 2 2 2 2 2 2 2 2 3
11 11 10 10 10 9 9 9 9 9 10 10 9 8 8 8 6 5 4 3 3 3 2 2 1 1 1 1 1 1 1 2 2 2 2 2 2 2 2 2 2 2 3 3 3 3 3 3 3 3 3 3 3 4
10 10 10 10 9 9 9 8 9 9 9 9 8 8 7 6 6 4 4 3 3 3 2 2 1 1 1 1 1 1 2 2 2 2 2 2 2 2 2 3 3 3 3 4 4 4 4 4 4 4 4 4 4 4
10 10 10 10 9 9 8 8 9 9 9 9 8 7 7 6 5 4 4 3 3 3 3 2 2 1 1 2 1 2 2 2 2 2 2 2 2 2 3 3 3 4 4 4 4 4 4 4 4 4 4 4 5 5
10 9 9 9 9 8 8 8 9 9 9 9 8 7 7 6 5 4 3 3 3 2 2 2 2 2 2 2 2 2 2 2 2 3 3 3 3 3 3 3 4 4 4 4 5 5 4 4 3 3 3 4 5 5
10 9 9 8 8 8 8 8 8 8 9 9 8 8 7 6 5 4 3 2 2 2 2 2 2 2 2 2 2 2 2 3 3 3 3 3 3 3 4 4 4 4 4 5 5 5 4 3 3 3 3 4 4 4
10 10 9 8 8 8 8 8 8 8 8 8 8 7 6 5 5 3 2 2 1 1 1 1 1 2 2 2 2 2 2 2 3 2 2 2 3 4 4 4 4 4 5 5 5 4 3 2 2 2 2 3 4 4
10 10 9 8 7 8 8 8 8 8 8 7 7 6 5 5 4 3 2 1 1 1 1 1 2 2 2 2 2 2 2 2 2 2 2 2 3 4 4 4 4 4 5 5 5 4 2 1 1 1 2 3 3 3
10 9 9 8 7 8 8 8 8 8 8 7 6 5 5 5 4 3 2 2 1 1 1 1 1 1 1 1 1 1 1 1 1 2 2 3 3 4 4 4 4 4 5 5 5 5 4 3 2 2 2 3 4 5
9 9 8 7 7 7 8 8 8 8 7 7 6 5 5 5 4 4 3 2 2 1 1 1 1 0 1 1 0 0 1 1 1 2 3 3 3 4 4 4 5 4 5 5 6 6 6 5 5 4 4 5 6 7
9 8 8 7 7 7 7 7 7 7 7 6 6 5 5 5 5 4 4 3 2 2 1 0 0 0 0 0 0 0 1 1 1 2 3 3 3 3 4 4 4 4 4 5 6 6 7 7 7 6 6 7 7 8
8 8 8 7 7 7 7 7 7 6 6 6 5 5 5 5 5 5 5 4 3 2 1 1 1 0 0 0 1 1 1 1 2 3 3 3 3 3 3 4 4 4 4 4 5 5 6 7 7 7 7 7 7 7
8 7 7 7 6 6 6 6 6 6 6 5 5 5 5 5 6 6 6 5 4 4 3 2 2 1 1 1 1 1 2 2 2 2 3 3 3 3 3 3 4 3 3 4 4 4 5 6 6 6 6 7 7 7
7 7 6 6 6 6 6 6 6 6 6 5 5 5 5 6 6 6 6 6 5 5 4 4 3 2 2 2 3 3 3 3 2 2 2 3 3 3 3 3 3 3 3 3 3 4 4 5 5 6 6 7 7 7
7 6 6 6 6 6 6 6 6 6 5 5 5 5 6 6 6 6 6 6 6 6 5 5 4 4 4 5 5 5 4 4 3 3 3 3 3 3 3 3 3 3 3 3 3 3 4 4 5 6 6 7 7 8
6 6 5 5 5 6 6 6 6 6 6 6 6 6 6 6 6 6 6 7 6 6 6 6 6 6 6 7 7 7 6 5 4 3 3 3 3 4 4 4 4 3 3 3 3 3 3 4 5 6 6 7 7 8
5 5 5 5 5 6 6 6 6 6 6 6 5 6 6 6 7 7 7 7 7 7 7 8 8 8 8 8 8 8 8 7 5 4 4 4 3 4 4 4 4 4 4 4 4 4 4 4 5 5 6 6 7 7
5 5 5 5 5 6 6 6 6 6 6 5 5 6 6 7 7 7 7 7 8 8 9 9 9 9 9 10 9 9 9 8 7 6 5 4 4 4 4 4 4 4 4 4 4 4 4 4 5 5 5 6 6 6
4 5 5 5 6 6 6 6 6 6 6 6 5 6 6 6 6 6 7 7 8 9 9 10 10 10 10 10 11 11 10 10 9 7 6 6 5 4 4 4 5 5 5 5 5 5 5 5 5 5 5 5 5 6
4 5 5 6 6 6 6 6 6 6 6 6 6 6 6 6 6 6 7 9 9 10 11 11 12 12 12 12 12 12 12 11 10 9 8 8 7 6 5 5 5 5 6 6 5 5 5 5 5 5 5 5 5 6
5 5 6 6 6 6 6 6 6 6 6 6 6 6 6 5 6 7 9 10 11 12 13 13 13 13 13 13 13 13 12 12 11 10 10 10 9 8 7 6 6 6 7 6 6 6 6 6 5 5 5 6 6 6
5 5 5 6 6 6 6 6 6 6 6 6 6 6 6 6 7 9 11 12 13 14 14 15 15 15 14 14 14 13 12 12 11 10 10 10 10 10 9 9 8 8 8 7 6 6 6 6 6 6 6 6 7 7
5 5 6 6 6 6 6 7 7 7 8 8 7 7 8 9 10 11 12 13 14 14 14 14 15 15 14 14 13 13 12 12 10 9 9 9 9 10 10 10 10 9 9 8 7 6 6 6 6 6 7 7 7 7
5 6 6 6 6 6 7 7 8 9 9 9 9 9 10 11 12 13 13 14 14 14 14 14 14 14 14 13 13 12 12 12 11 10 10 10 10 11 11 11 10 10 9 9 8 7 6 6 6 6 6 7 7 7
6 6 6 6 6 7 8 8 9 10 10 10 10 10 10 11 12 13 14 14 14 14 14 14 14 14 14 13 13 12 12 12 13 12 12 12 12 13 13 12 12 11 10 9 8 7 7 6 6 5 6 6 6 7
6 6 6 6 7 7 8 9 9 9 10 10 10 11 11 11 11 13 14 15 15 14 14 14 14 14 14 14 13 13 13 13 14 14 14 14 14 14 14 13 13 12 12 11 10 9 8 7 6 5 5 5 6 6
7 7 7 7 7 7 8 9 9 9 9 10 10 11 11 11 11 12 15 15 15 15 15 15 15 14 14 14 14 14 14 14 14 15 15 15 14 14 14 14 14 13 12 12 11 9 8 7 7 6 5 5 6 6